When you browse on this site, cookies collect data to enhance your experience and personalize the content and advertising you see.
Visit our Privacy Policy to learn more. By continuing to use the site, you agree to this use of cookies and data.
  • In Portugal
  • List of Countries
  • For 7 days
  • Water Temperature
  • Satellite Maps
  • Weather Map
  • Weather Widgets
  • user-avatar
    Login

    Hourly Weather Czerna

    Today, 21 January, Monday

    Time Temperature Precipitation Wind Pressure Humidity
    00:00 -4°C° 0 mm 0 mps 747 mmHg 65%
    01:00 -5°C° 0 mm 0 mps 748 mmHg 65%
    02:00 -5°C° 0 mm 0 mps 748 mmHg 66%
    03:00 -5°C° 0 mm 0 mps 747 mmHg 66%
    04:00 -5°C° 0 mm 0 mps 747 mmHg 66%
    05:00 -5°C° 0 mm 0 mps 747 mmHg 66%
    06:00 -5°C° 0 mm 0 mps 747 mmHg 65%
    07:00 -5°C° 0 mm 0 mps 747 mmHg 65%
    08:00 -4°C° 0 mm 0 mps 747 mmHg 61%
    09:00 -3°C° 0 mm 0 mps 748 mmHg 57%
    10:00 -3°C° 0 mm 0 mps 748 mmHg 53%
    11:00 -1°C° 0 mm 1 mps 747 mmHg 49%
    12:00 0°C° 0 mm 1 mps 747 mmHg 46%
    13:00 +1°C° 0 mm 1 mps 747 mmHg 42%
    14:00 0°C° 0 mm 0 mps 747 mmHg 45%
    15:00 -1°C° 0 mm 0 mps 746 mmHg 48%
    16:00 -2°C° 0 mm 0 mps 746 mmHg 51%
    17:00 -1°C° 0 mm 1 mps 746 mmHg 53%
    18:00 -2°C° 0 mm 1 mps 745 mmHg 56%
    19:00 -2°C° 0 mm 1 mps 745 mmHg 59%
    20:00 -2°C° 0 mm 1 mps 745 mmHg 59%
    21:00 -5°C° 0 mm 2 mps 745 mmHg 60%
    22:00 -5°C° 0 mm 2 mps 745 mmHg 61%
    23:00 -5°C° 0 mm 2 mps 744 mmHg 61%

    Tomorrow, 22 January, Tuesday

    Time Temperature Precipitation Wind Pressure Humidity
    00:00 -5°C° 0 mm 2 mps 744 mmHg 60%
    01:00 -5°C° 0 mm 2 mps 744 mmHg 60%
    02:00 -5°C° 0 mm 2 mps 743 mmHg 62%
    03:00 -5°C° 0 mm 2 mps 743 mmHg 64%
    04:00 -5°C° 0 mm 2 mps 743 mmHg 66%
    05:00 -5°C° 0 mm 2 mps 742 mmHg 67%
    06:00 -5°C° 0 mm 2 mps 742 mmHg 69%
    07:00 -6°C° 0 mm 2 mps 742 mmHg 70%
    08:00 -5°C° 0 mm 2 mps 741 mmHg 67%
    09:00 -4°C° 0 mm 2 mps 741 mmHg 63%
    10:00 -3°C° 0 mm 2 mps 741 mmHg 60%
    11:00 -2°C° 0 mm 2 mps 741 mmHg 56%
    12:00 -2°C° 0 mm 2 mps 740 mmHg 53%
    13:00 +1°C° 0 mm 1 mps 740 mmHg 49%
    14:00 +1°C° 0 mm 1 mps 739 mmHg 52%
    15:00 0°C° 0 mm 1 mps 738 mmHg 55%
    16:00 0°C° 0 mm 1 mps 738 mmHg 58%
    17:00 -1°C° 0 mm 1 mps 738 mmHg 60%
    18:00 -4°C° 0 mm 2 mps 737 mmHg 63%
    19:00 -4°C° 0 mm 2 mps 737 mmHg 65%
    20:00 -5°C° 0 mm 2 mps 737 mmHg 64%
    21:00 -5°C° 0 mm 2 mps 737 mmHg 63%
    22:00 -5°C° 0 mm 2 mps 736 mmHg 61%
    23:00 -5°C° 0 mm 2 mps 736 mmHg 62%

    Day after tomorrow, 23 January, Wednesday

    Time Temperature Precipitation Wind Pressure Humidity
    00:00 -5°C° 0 mm 2 mps 736 mmHg 62%
    01:00 -5°C° 0 mm 2 mps 735 mmHg 62%
    02:00 -5°C° 0 mm 2 mps 735 mmHg 63%
    03:00 -5°C° 0 mm 2 mps 735 mmHg 63%
    04:00 -6°C° 0 mm 2 mps 734 mmHg 64%
    05:00 -6°C° 0 mm 2 mps 734 mmHg 65%
    06:00 -6°C° 0 mm 2 mps 734 mmHg 66%
    07:00 -6°C° 0 mm 2 mps 734 mmHg 67%
    08:00 -6°C° 0 mm 3 mps 734 mmHg 65%
    09:00 -6°C° 0 mm 3 mps 734 mmHg 63%
    10:00 -5°C° 0 mm 4 mps 734 mmHg 61%
    11:00 -4°C° 0 mm 4 mps 734 mmHg 58%
    12:00 -4°C° 0 mm 4 mps 734 mmHg 55%
    13:00 -4°C° 0 mm 5 mps 734 mmHg 53%
    14:00 -5°C° 0 mm 5 mps 734 mmHg 57%
    15:00 -5°C° 0 mm 5 mps 734 mmHg 61%
    16:00 -5°C° 0 mm 4 mps 734 mmHg 65%
    17:00 -6°C° 0 mm 5 mps 735 mmHg 69%
    18:00 -7°C° 0 mm 5 mps 735 mmHg 73%
    19:00 -7°C° 0 mm 5 mps 735 mmHg 77%
    20:00 -7°C° 0 mm 4 mps 736 mmHg 78%
    21:00 -7°C° 0 mm 4 mps 736 mmHg 78%
    22:00 -8°C° 0 mm 4 mps 737 mmHg 79%
    23:00 -8°C° 0 mm 4 mps 737 mmHg 80%

    24 January, Thursday

    Time Temperature Precipitation Wind Pressure Humidity
    00:00 -8°C° 0 mm 4 mps 737 mmHg 80%
    01:00 -8°C° 0 mm 4 mps 737 mmHg 80%
    02:00 -8°C° 0 mm 4 mps 738 mmHg 80%
    03:00 -9°C° 0 mm 4 mps 738 mmHg 81%
    04:00 -8°C° 0 mm 3 mps 738 mmHg 81%
    05:00 -8°C° 0 mm 3 mps 738 mmHg 81%
    06:00 -8°C° 0 mm 3 mps 739 mmHg 81%
    07:00 -8°C° 0 mm 3 mps 739 mmHg 81%
    08:00 -8°C° 0 mm 3 mps 740 mmHg 78%
    09:00 -8°C° 0 mm 4 mps 740 mmHg 75%
    10:00 -8°C° 0 mm 4 mps 741 mmHg 71%
    11:00 -7°C° 0 mm 4 mps 741 mmHg 68%
    12:00 -5°C° 0 mm 4 mps 741 mmHg 65%
    13:00 -4°C° 0 mm 4 mps 741 mmHg 62%
    14:00 -4°C° 0 mm 3 mps 741 mmHg 64%
    15:00 -5°C° 0 mm 3 mps 741 mmHg 66%
    16:00 -5°C° 0 mm 3 mps 741 mmHg 67%
    17:00 -6°C° 0 mm 3 mps 742 mmHg 70%
    18:00 -5°C° 0 mm 2 mps 742 mmHg 73%
    19:00 -6°C° 0 mm 2 mps 742 mmHg 76%
    20:00 -6°C° 0 mm 2 mps 743 mmHg 78%
    21:00 -4°C° 0 mm 1 mps 743 mmHg 79%
    22:00 -4°C° 0 mm 1 mps 743 mmHg 80%
    23:00 -4°C° 0 mm 1 mps 743 mmHg 82%

    25 January, Friday

    Time Temperature Precipitation Wind Pressure Humidity
    00:00 -4°C° 0 mm 1 mps 743 mmHg 83%
    01:00 -6°C° 0 mm 1 mps 743 mmHg 84%
    02:00 -6°C° 0 mm 1 mps 743 mmHg 85%
    03:00 -6°C° 0 mm 1 mps 743 mmHg 85%
    04:00 -6°C° 0 mm 0 mps 743 mmHg 86%
    05:00 -4°C° 0 mm 1 mps 744 mmHg 85%
    06:00 -4°C° 0 mm 1 mps 744 mmHg 85%
    07:00 -4°C° 0 mm 1 mps 744 mmHg 85%
    08:00 -4°C° 0 mm 1 mps 744 mmHg 82%
    09:00 -4°C° 0 mm 1 mps 744 mmHg 80%
    10:00 -3°C° 0 mm 1 mps 745 mmHg 77%
    11:00 -3°C° 0 mm 1 mps 744 mmHg 73%
    12:00 -2°C° 0 mm 1 mps 744 mmHg 69%
    13:00 -2°C° 0 mm 1 mps 744 mmHg 65%
    14:00 -2°C° 0 mm 1 mps 744 mmHg 65%
    15:00 -2°C° 0 mm 1 mps 743 mmHg 65%
    16:00 -2°C° 0 mm 1 mps 743 mmHg 65%
    17:00 -2°C° 0 mm 1 mps 743 mmHg 67%
    18:00 -5°C° 0 mm 2 mps 743 mmHg 69%
    19:00 -5°C° 0 mm 2 mps 742 mmHg 70%
    20:00 -5°C° 0 mm 2 mps 742 mmHg 68%
    21:00 -6°C° 0 mm 3 mps 742 mmHg 65%
    22:00 -6°C° 0 mm 3 mps 741 mmHg 62%
    23:00 -5°C° 0 mm 3 mps 741 mmHg 60%

    26 January, Saturday

    Time Temperature Precipitation Wind Pressure Humidity
    00:00 -5°C° 0 mm 4 mps 740 mmHg 58%
    01:00 -4°C° 0 mm 4 mps 739 mmHg 56%
    02:00 -4°C° 0.1 mm 4 mps 739 mmHg 63%
    03:00 -5°C° 0.1 mm 5 mps 738 mmHg 70%
    04:00 -5°C° 0.1 mm 5 mps 737 mmHg 77%
    05:00 -4°C° 0.2 mm 5 mps 737 mmHg 80%
    06:00 -4°C° 0.2 mm 5 mps 737 mmHg 84%
    07:00 -2°C° 0.2 mm 5 mps 736 mmHg 88%
    08:00 -2°C° 0.1 mm 5 mps 736 mmHg 88%
    09:00 -1°C° 0.1 mm 5 mps 736 mmHg 89%
    10:00 -1°C° 0.1 mm 4 mps 737 mmHg 90%
    11:00 0°C° 0 mm 4 mps 736 mmHg 89%
    12:00 +1°C° 0 mm 3 mps 736 mmHg 89%
    13:00 +1°C° 0 mm 3 mps 736 mmHg 88%
    14:00 +1°C° 0 mm 3 mps 736 mmHg 89%
    15:00 +2°C° 0 mm 2 mps 735 mmHg 90%
    16:00 +2°C° 0 mm 2 mps 735 mmHg 91%
    17:00 +2°C° 0 mm 2 mps 735 mmHg 91%
    18:00 +1°C° 0 mm 2 mps 734 mmHg 91%
    19:00 +1°C° 0 mm 2 mps 734 mmHg 91%
    20:00 +1°C° 0.1 mm 2 mps 733 mmHg 91%
    21:00 +1°C° 0.1 mm 2 mps 733 mmHg 91%
    22:00 +1°C° 0.1 mm 3 mps 733 mmHg 91%
    23:00 +1°C° 0 mm 3 mps 732 mmHg 90%
    Show more